WZZ422 LQTZ-EDDH

Flight info

Callsign WZZ422
Flight time 1h 48m
Altitude 34000
Route DER DCT GUBOK DCT VEBAL DCT SUNIS DCT NURMI DCT DEXIT DCT AKOSI DCT SODRO DCT EMBOX M726 ERNUD M748 RARUP RARUP3P
Aircraft A21N/M-SDE1E2E3FGIJ1J4RWXY/LB1

Departure

Time 2026-05-04 17:34
Airport Tuzla International Airport (LQTZ)

Arrival

Time 2026-05-04 19:22
Airport Hamburg Helmut Schmidt Airport (EDDH)
Time Latitude Longitude Altitude Speed Heading
2026-05-04 17:04 44.46344 18.70983 787 ft 0 kts 97°
2026-05-04 17:06 44.46344 18.70988 787 ft 0 kts 97°
2026-05-04 17:29 44.46322 18.70984 786 ft 3 kts 207°
2026-05-04 17:30 44.46244 18.70955 783 ft 5 kts 189°
2026-05-04 17:31 44.46164 18.70937 781 ft 7 kts 188°
2026-05-04 17:31 44.46012 18.70937 784 ft 9 kts 157°
2026-05-04 17:32 44.45983 18.70995 785 ft 0 kts 97°
2026-05-04 17:33 44.45982 18.71002 785 ft 9 kts 97°
2026-05-04 17:34 44.45731 18.74107 1116 ft 158 kts 98°
2026-05-04 17:34 44.45599 18.75640 1711 ft 160 kts 96°
2026-05-04 17:35 44.45191 18.80905 2985 ft 204 kts 97°
2026-05-04 17:35 44.44924 18.85166 3816 ft 241 kts 85°
2026-05-04 17:35 44.45434 18.87471 4319 ft 256 kts 59°
2026-05-04 17:36 44.46668 18.89288 5011 ft 262 kts 31°
2026-05-04 17:36 44.48370 18.90140 5764 ft 262 kts
2026-05-04 17:36 44.50165 18.89842 6516 ft 262 kts 337°
2026-05-04 17:36 44.51761 18.88632 7249 ft 262 kts 326°
2026-05-04 17:37 44.53291 18.87210 7961 ft 266 kts 326°
2026-05-04 17:37 44.54848 18.85779 8687 ft 269 kts 327°
2026-05-04 17:37 44.56430 18.84346 9383 ft 273 kts 328°
2026-05-04 17:37 44.58045 18.82914 10066 ft 277 kts 328°
2026-05-04 17:38 44.59688 18.81466 10691 ft 280 kts 329°
2026-05-04 17:38 44.61333 18.80024 11301 ft 284 kts 329°
2026-05-04 17:38 44.63022 18.78549 11951 ft 287 kts 329°
2026-05-04 17:38 44.64733 18.77069 12619 ft 290 kts 329°
2026-05-04 17:39 44.68177 18.74035 13922 ft 295 kts 325°
2026-05-04 17:39 44.69640 18.71984 14405 ft 304 kts 306°
2026-05-04 17:39 44.70737 18.69359 14695 ft 320 kts 299°
2026-05-04 17:40 44.71793 18.66520 14928 ft 336 kts 298°
2026-05-04 17:40 44.72906 18.63537 15167 ft 352 kts 299°
2026-05-04 17:40 44.74075 18.60478 15651 ft 358 kts 300°
2026-05-04 17:40 44.75267 18.57382 16266 ft 361 kts 300°
2026-05-04 17:41 44.76468 18.54264 16895 ft 364 kts 300°
2026-05-04 17:41 44.77684 18.51127 17509 ft 366 kts 300°
2026-05-04 17:41 44.78901 18.47966 18129 ft 369 kts 300°
2026-05-04 17:41 44.80126 18.44773 18684 ft 372 kts 300°
2026-05-04 17:42 44.81365 18.41568 19210 ft 374 kts 300°
2026-05-04 17:42 44.82609 18.38342 19732 ft 376 kts 300°
2026-05-04 17:42 44.83857 18.35092 20255 ft 378 kts 300°
2026-05-04 17:42 44.85107 18.31814 20772 ft 380 kts 299°
2026-05-04 17:43 44.86355 18.28513 21286 ft 383 kts 300°
2026-05-04 17:43 44.87618 18.25201 21779 ft 385 kts 300°
2026-05-04 17:43 44.88894 18.21871 22279 ft 387 kts 300°
2026-05-04 17:43 44.90170 18.18505 22761 ft 390 kts 299°
2026-05-04 17:44 44.91452 18.15124 23245 ft 392 kts 299°
2026-05-04 17:44 44.92742 18.11723 23700 ft 395 kts 299°
2026-05-04 17:44 44.94041 18.08300 24095 ft 396 kts 299°
2026-05-04 17:44 44.95343 18.04860 24493 ft 398 kts 299°
2026-05-04 17:45 44.96654 18.01406 24879 ft 400 kts 299°
2026-05-04 17:45 44.97984 17.97943 25257 ft 402 kts 301°
2026-05-04 17:45 44.99575 17.94698 25632 ft 403 kts 308°
2026-05-04 17:45 45.01313 17.91594 26001 ft 404 kts 309°
2026-05-04 17:46 45.03127 17.88544 26361 ft 405 kts 315°
2026-05-04 17:46 45.05272 17.85962 26684 ft 407 kts 326°
2026-05-04 17:46 45.07767 17.84060 27023 ft 409 kts 336°
2026-05-04 17:46 45.10408 17.82537 27361 ft 411 kts 338°
2026-05-04 17:47 45.13072 17.81041 27701 ft 413 kts 338°
2026-05-04 17:47 45.15743 17.79514 28030 ft 415 kts 337°
2026-05-04 17:47 45.18419 17.77957 28355 ft 417 kts 337°
2026-05-04 17:47 45.21102 17.76383 28669 ft 418 kts 337°
2026-05-04 17:48 45.23797 17.74797 28983 ft 420 kts 337°
2026-05-04 17:48 45.26504 17.73203 29286 ft 422 kts 337°
2026-05-04 17:48 45.29220 17.71597 29588 ft 424 kts 337°
2026-05-04 17:48 45.31949 17.69981 29876 ft 426 kts 337°
2026-05-04 17:49 45.34686 17.68360 30159 ft 427 kts 337°
2026-05-04 17:49 45.37434 17.66732 30377 ft 429 kts 336°
2026-05-04 17:49 45.40196 17.65092 30619 ft 430 kts 336°
2026-05-04 17:49 45.42964 17.63448 30865 ft 432 kts 336°
2026-05-04 17:50 45.45738 17.61797 31090 ft 433 kts 336°
2026-05-04 17:50 45.48519 17.60140 31346 ft 433 kts 336°
2026-05-04 17:50 45.51300 17.58482 31656 ft 432 kts 336°
2026-05-04 17:50 45.54070 17.56827 31980 ft 431 kts 336°
2026-05-04 17:51 45.56828 17.55178 32267 ft 430 kts 336°
2026-05-04 17:51 45.59585 17.53530 32544 ft 429 kts 336°
2026-05-04 17:51 45.62295 17.51909 32824 ft 428 kts 336°
2026-05-04 17:51 45.65038 17.50265 33088 ft 427 kts 336°
2026-05-04 17:52 45.67776 17.48622 33335 ft 426 kts 336°
2026-05-04 17:52 45.70503 17.46982 33562 ft 425 kts 336°
2026-05-04 17:52 45.73232 17.45340 33791 ft 425 kts 336°
2026-05-04 17:52 45.75955 17.43700 34004 ft 424 kts 336°
2026-05-04 17:53 45.81388 17.40425 34049 ft 423 kts 336°
2026-05-04 17:53 45.86812 17.37146 34024 ft 423 kts 336°
2026-05-04 17:54 45.92239 17.33859 34012 ft 423 kts 336°
2026-05-04 17:54 45.97665 17.30566 34015 ft 423 kts 336°
2026-05-04 17:55 46.02890 17.26686 34006 ft 424 kts 330°
2026-05-04 17:55 46.08040 17.22519 34018 ft 425 kts 330°
2026-05-04 17:56 46.13206 17.18340 34009 ft 426 kts 330°
2026-05-04 17:56 46.18380 17.14155 34005 ft 426 kts 330°
2026-05-04 17:57 46.23553 17.09963 33995 ft 426 kts 330°
2026-05-04 17:57 46.28721 17.05758 34007 ft 426 kts 330°
2026-05-04 17:58 46.33894 17.01543 33997 ft 428 kts 330°
2026-05-04 17:58 46.39092 16.97308 34001 ft 429 kts 330°
2026-05-04 17:59 46.44292 16.93057 33988 ft 429 kts 330°
2026-05-04 18:00 46.52092 16.86663 33982 ft 429 kts 329°
2026-05-04 18:00 46.57279 16.82386 33999 ft 428 kts 330°
2026-05-04 18:01 46.62456 16.78123 33986 ft 428 kts 329°
2026-05-04 18:01 46.67650 16.73838 33985 ft 430 kts 329°
2026-05-04 18:02 46.75448 16.67372 33983 ft 430 kts 329°
2026-05-04 18:02 46.80604 16.63099 33982 ft 429 kts 329°
2026-05-04 18:03 46.85781 16.58780 33982 ft 428 kts 329°
2026-05-04 18:03 46.90959 16.54461 33967 ft 428 kts 329°
2026-05-04 18:04 46.96141 16.50131 33977 ft 430 kts 329°
2026-05-04 18:05 47.03917 16.43609 33979 ft 429 kts 329°
2026-05-04 18:05 47.09094 16.39257 33979 ft 429 kts 329°
2026-05-04 18:06 47.15858 16.30779 33979 ft 429 kts 313°
2026-05-04 18:06 47.19963 16.24400 33969 ft 429 kts 313°
2026-05-04 18:07 47.24087 16.18051 33970 ft 430 kts 313°
2026-05-04 18:07 47.28220 16.11695 33971 ft 430 kts 313°
2026-05-04 18:08 47.32330 16.05350 33978 ft 424 kts 313°
2026-05-04 18:08 47.36364 15.99026 33966 ft 424 kts 313°
2026-05-04 18:09 47.44527 15.86393 33976 ft 424 kts 312°
2026-05-04 18:10 47.48602 15.80078 33969 ft 422 kts 311°
2026-05-04 18:10 47.52640 15.73793 33964 ft 421 kts 311°
2026-05-04 18:11 47.56667 15.67503 33977 ft 421 kts 311°
2026-05-04 18:11 47.60696 15.61183 33976 ft 424 kts 311°
2026-05-04 18:12 47.64064 15.55882 33965 ft 425 kts 311°
2026-05-04 18:12 47.68129 15.49486 33963 ft 426 kts 311°
2026-05-04 18:13 47.72181 15.43089 33945 ft 424 kts 311°
2026-05-04 18:14 47.78231 15.33500 33944 ft 424 kts 311°
2026-05-04 18:14 47.82292 15.27046 33933 ft 429 kts 311°
2026-05-04 18:15 47.90449 15.14043 33914 ft 429 kts 311°
2026-05-04 18:16 47.94505 15.07546 33899 ft 428 kts 310°
2026-05-04 18:16 47.98539 15.01002 33907 ft 429 kts 311°
2026-05-04 18:17 48.04664 14.91084 33895 ft 435 kts 311°
2026-05-04 18:18 48.10832 14.81131 33885 ft 435 kts 310°
2026-05-04 18:18 48.14922 14.74465 33886 ft 434 kts 310°
2026-05-04 18:19 48.21075 14.64522 33883 ft 435 kts 311°
2026-05-04 18:19 48.25203 14.57859 33882 ft 436 kts 310°
2026-05-04 18:20 48.29282 14.51212 33879 ft 436 kts 310°
2026-05-04 18:20 48.33375 14.44501 33878 ft 436 kts 310°
2026-05-04 18:21 48.37465 14.37778 33880 ft 436 kts 310°
2026-05-04 18:21 48.41552 14.31037 33886 ft 437 kts 310°
2026-05-04 18:22 48.45644 14.24279 33880 ft 437 kts 310°
2026-05-04 18:22 48.49730 14.17509 33894 ft 436 kts 309°
2026-05-04 18:23 48.53793 14.10711 33899 ft 437 kts 310°
2026-05-04 18:23 48.57863 14.03901 33910 ft 437 kts 309°
2026-05-04 18:24 48.61938 13.97082 33910 ft 438 kts 310°
2026-05-04 18:24 48.66028 13.90274 33904 ft 437 kts 309°
2026-05-04 18:25 48.70080 13.83411 33928 ft 437 kts 309°
2026-05-04 18:25 48.74122 13.76549 33921 ft 436 kts 309°
2026-05-04 18:26 48.78187 13.69713 33917 ft 437 kts 309°
2026-05-04 18:26 48.82252 13.62856 33924 ft 437 kts 308°
2026-05-04 18:27 48.86317 13.56007 33921 ft 437 kts 309°
2026-05-04 18:27 48.90357 13.49122 33922 ft 436 kts 308°
2026-05-04 18:28 48.94392 13.42224 33931 ft 437 kts 308°
2026-05-04 18:28 48.98429 13.35328 33932 ft 435 kts 309°
2026-05-04 18:29 49.02458 13.28464 33945 ft 434 kts 308°
2026-05-04 18:29 49.06444 13.21554 33939 ft 434 kts 308°
2026-05-04 18:30 49.12443 13.11192 33933 ft 434 kts 308°
2026-05-04 18:31 49.16458 13.04296 33936 ft 434 kts 309°
2026-05-04 18:31 49.20489 12.97414 33936 ft 435 kts 308°
2026-05-04 18:32 49.24489 12.90473 33939 ft 435 kts 308°
2026-05-04 18:32 49.28465 12.83536 33942 ft 432 kts 308°
2026-05-04 18:33 49.32431 12.76612 33940 ft 432 kts 308°
2026-05-04 18:33 49.36391 12.69677 33942 ft 432 kts 308°
2026-05-04 18:34 49.40326 12.62690 33940 ft 432 kts 307°
2026-05-04 18:34 49.44249 12.55692 33953 ft 433 kts 307°
2026-05-04 18:35 49.48205 12.48705 33951 ft 433 kts 308°
2026-05-04 18:35 49.52181 12.41728 33950 ft 433 kts 307°
2026-05-04 18:36 49.56078 12.34738 33953 ft 432 kts 307°
2026-05-04 18:36 49.60033 12.27686 33950 ft 432 kts 307°
2026-05-04 18:37 49.63957 12.20680 33955 ft 432 kts 307°
2026-05-04 18:37 49.67879 12.13689 33982 ft 435 kts 309°
2026-05-04 18:37 49.70115 12.10513 33983 ft 440 kts 320°
2026-05-04 18:38 49.72778 12.08128 33989 ft 447 kts 333°
2026-05-04 18:38 49.78880 12.05658 33989 ft 453 kts 345°
2026-05-04 18:39 49.84993 12.03747 33978 ft 450 kts 344°
2026-05-04 18:39 49.91103 12.01683 33971 ft 449 kts 343°
2026-05-04 18:40 49.97219 11.99627 33952 ft 450 kts 344°
2026-05-04 18:40 50.03332 11.97580 33965 ft 450 kts 344°
2026-05-04 18:41 50.09425 11.95512 33974 ft 447 kts 344°
2026-05-04 18:41 50.15486 11.93436 33963 ft 446 kts 344°
2026-05-04 18:42 50.21551 11.91346 33964 ft 446 kts 343°
2026-05-04 18:42 50.27610 11.89261 33975 ft 446 kts 344°
2026-05-04 18:43 50.33652 11.87176 33964 ft 444 kts 343°
2026-05-04 18:43 50.39693 11.85086 33963 ft 444 kts 343°
2026-05-04 18:44 50.45730 11.82995 33962 ft 445 kts 344°
2026-05-04 18:44 50.51823 11.81178 33957 ft 446 kts 346°
2026-05-04 18:45 50.57917 11.79404 33954 ft 446 kts 346°
2026-05-04 18:45 50.64014 11.77634 33952 ft 446 kts 346°
2026-05-04 18:46 50.70113 11.75855 33954 ft 446 kts 346°
2026-05-04 18:46 50.76207 11.74068 33969 ft 445 kts 345°
2026-05-04 18:47 50.82307 11.72272 33960 ft 447 kts 345°
2026-05-04 18:47 50.88419 11.70483 33957 ft 447 kts 345°
2026-05-04 18:48 50.94491 11.68692 33947 ft 447 kts 345°
2026-05-04 18:48 51.00603 11.66889 33969 ft 447 kts 345°
2026-05-04 18:49 51.06711 11.65061 33952 ft 447 kts 345°
2026-05-04 18:49 51.12822 11.63242 33954 ft 447 kts 345°
2026-05-04 18:50 51.18925 11.61426 33957 ft 446 kts 345°
2026-05-04 18:50 51.25026 11.59599 33966 ft 446 kts 345°
2026-05-04 18:51 51.31108 11.57775 33960 ft 444 kts 345°
2026-05-04 18:51 51.37188 11.55941 33956 ft 444 kts 345°
2026-05-04 18:52 51.43280 11.54106 33957 ft 447 kts 345°
2026-05-04 18:52 51.49386 11.52258 33967 ft 446 kts 344°
2026-05-04 18:53 51.55477 11.50408 33949 ft 445 kts 344°
2026-05-04 18:53 51.61615 11.48885 33945 ft 449 kts 350°
2026-05-04 18:54 51.67857 11.48095 33942 ft 450 kts 351°
2026-05-04 18:54 51.74098 11.47298 33948 ft 450 kts 350°
2026-05-04 18:55 51.80345 11.46475 33938 ft 450 kts 350°
2026-05-04 18:55 51.89719 11.45247 33936 ft 451 kts 350°
2026-05-04 18:56 51.95968 11.44422 33936 ft 451 kts 350°
2026-05-04 18:56 52.02223 11.43588 33940 ft 451 kts 350°
2026-05-04 18:57 52.07466 11.42888 33944 ft 451 kts 350°
2026-05-04 18:57 52.13683 11.42055 33941 ft 451 kts 350°
2026-05-04 18:58 52.19940 11.41217 33941 ft 451 kts 350°
2026-05-04 18:58 52.26150 11.40387 33602 ft 439 kts 349°
2026-05-04 18:59 52.29161 11.39986 33298 ft 430 kts 349°
2026-05-04 18:59 52.32129 11.39587 33016 ft 427 kts 349°
2026-05-04 18:59 52.35079 11.39189 32740 ft 425 kts 349°
2026-05-04 18:59 52.38020 11.38790 32473 ft 423 kts 349°
2026-05-04 19:00 52.40951 11.38395 32209 ft 422 kts 349°
2026-05-04 19:00 52.43869 11.38001 31949 ft 420 kts 349°
2026-05-04 19:00 52.46784 11.37607 31709 ft 419 kts 349°
2026-05-04 19:00 52.49682 11.37211 31459 ft 417 kts 349°
2026-05-04 19:01 52.52569 11.36816 31198 ft 416 kts 349°
2026-05-04 19:01 52.55446 11.36423 30946 ft 414 kts 349°
2026-05-04 19:01 52.58315 11.36031 30696 ft 413 kts 349°
2026-05-04 19:01 52.61175 11.35641 30448 ft 412 kts 349°
2026-05-04 19:02 52.64025 11.35251 30195 ft 410 kts 349°
2026-05-04 19:02 52.66864 11.34864 29939 ft 409 kts 349°
2026-05-04 19:02 52.69697 11.34477 29659 ft 407 kts 349°
2026-05-04 19:02 52.72513 11.34086 29411 ft 406 kts 349°
2026-05-04 19:03 52.75329 11.33697 29123 ft 405 kts 349°
2026-05-04 19:03 52.78131 11.33310 28841 ft 403 kts 349°
2026-05-04 19:03 52.80920 11.32927 28567 ft 402 kts 349°
2026-05-04 19:03 52.83698 11.32545 28296 ft 400 kts 349°
2026-05-04 19:04 52.86465 11.32165 28025 ft 398 kts 349°
2026-05-04 19:04 52.89218 11.31787 27757 ft 396 kts 349°
2026-05-04 19:04 52.91962 11.31408 27453 ft 394 kts 349°
2026-05-04 19:04 52.94688 11.31031 27039 ft 391 kts 349°
2026-05-04 19:05 52.97387 11.30656 26556 ft 388 kts 349°
2026-05-04 19:05 53.00069 11.30282 26085 ft 386 kts 349°
2026-05-04 19:05 53.02765 11.29902 25267 ft 392 kts 349°
2026-05-04 19:05 53.05512 11.29513 24397 ft 400 kts 349°
2026-05-04 19:06 53.08278 11.29127 23824 ft 398 kts 350°
2026-05-04 19:06 53.11019 11.28623 23235 ft 392 kts 343°
2026-05-04 19:06 53.13537 11.27311 22656 ft 378 kts 327°
2026-05-04 19:06 53.15700 11.24948 22023 ft 370 kts 317°
2026-05-04 19:07 53.17728 11.22334 21418 ft 367 kts 317°
2026-05-04 19:07 53.19763 11.19773 20813 ft 366 kts 318°
2026-05-04 19:07 53.21766 11.17183 20252 ft 363 kts 317°
2026-05-04 19:07 53.23727 11.14605 19900 ft 354 kts 317°
2026-05-04 19:08 53.25651 11.12074 19389 ft 351 kts 318°
2026-05-04 19:08 53.27562 11.09552 18821 ft 350 kts 318°
2026-05-04 19:08 53.29466 11.07043 18284 ft 348 kts 318°
2026-05-04 19:08 53.31360 11.04548 17699 ft 345 kts 319°
2026-05-04 19:09 53.33237 11.02074 17130 ft 342 kts 319°
2026-05-04 19:09 53.35096 10.99611 16581 ft 339 kts 318°
2026-05-04 19:09 53.36940 10.97164 16022 ft 337 kts 319°
2026-05-04 19:09 53.38771 10.94742 15477 ft 334 kts 319°
2026-05-04 19:10 53.40585 10.92336 14939 ft 332 kts 319°
2026-05-04 19:10 53.42389 10.89939 14401 ft 329 kts 319°
2026-05-04 19:10 53.44180 10.87562 13861 ft 327 kts 319°
2026-05-04 19:10 53.45949 10.85203 13202 ft 323 kts 319°
2026-05-04 19:11 53.47703 10.82860 12527 ft 321 kts 319°
2026-05-04 19:11 53.49441 10.80539 11867 ft 318 kts 319°
2026-05-04 19:11 53.51159 10.78242 11253 ft 314 kts 318°
2026-05-04 19:11 53.52848 10.75969 10720 ft 308 kts 318°
2026-05-04 19:12 53.54501 10.73744 10257 ft 300 kts 318°
2026-05-04 19:12 53.57646 10.69531 9503 ft 282 kts 318°
2026-05-04 19:12 53.59168 10.67492 8994 ft 277 kts 318°
2026-05-04 19:13 53.60669 10.65478 8560 ft 274 kts 318°
2026-05-04 19:13 53.62153 10.63482 8189 ft 272 kts 318°
2026-05-04 19:13 53.63623 10.61500 7841 ft 270 kts 318°
2026-05-04 19:13 53.65088 10.59534 7505 ft 268 kts 318°
2026-05-04 19:14 53.66541 10.57573 7149 ft 268 kts 318°
2026-05-04 19:14 53.67996 10.55607 6773 ft 268 kts 318°
2026-05-04 19:14 53.69451 10.53645 6399 ft 268 kts 318°
2026-05-04 19:14 53.70907 10.51677 6005 ft 268 kts 318°
2026-05-04 19:15 53.72363 10.49705 5632 ft 268 kts 319°
2026-05-04 19:15 53.73810 10.47742 5279 ft 266 kts 319°
2026-05-04 19:15 53.75033 10.45485 4941 ft 259 kts 297°
2026-05-04 19:15 53.75687 10.42686 4676 ft 256 kts 285°
2026-05-04 19:16 53.76188 10.39814 4349 ft 254 kts 284°
2026-05-04 19:16 53.76661 10.36955 3977 ft 252 kts 284°
2026-05-04 19:16 53.77125 10.34099 3674 ft 252 kts 284°
2026-05-04 19:16 53.77585 10.31248 3427 ft 249 kts 284°
2026-05-04 19:17 53.78028 10.28473 3172 ft 241 kts 284°
2026-05-04 19:17 53.78317 10.25748 2971 ft 230 kts 266°
2026-05-04 19:17 53.77858 10.23201 2873 ft 227 kts 239°
2026-05-04 19:17 53.76743 10.21393 2593 ft 222 kts 210°
2026-05-04 19:18 53.75385 10.20340 2461 ft 204 kts 204°
2026-05-04 19:18 53.74146 10.19502 2482 ft 180 kts 204°
2026-05-04 19:18 53.73048 10.18643 2469 ft 172 kts 217°
2026-05-04 19:18 53.72161 10.17307 2476 ft 170 kts 229°
2026-05-04 19:19 53.71393 10.15791 2440 ft 170 kts 233°
2026-05-04 19:19 53.70635 10.14251 2260 ft 171 kts 232°
2026-05-04 19:19 53.69875 10.12704 2075 ft 171 kts 232°
2026-05-04 19:19 53.69112 10.11153 1834 ft 173 kts 232°
2026-05-04 19:20 53.68368 10.09643 1600 ft 158 kts 233°
2026-05-04 19:20 53.67712 10.08309 1356 ft 143 kts 233°
2026-05-04 19:20 53.67080 10.07025 1157 ft 142 kts 232°
2026-05-04 19:20 53.66451 10.05747 969 ft 141 kts 233°
2026-05-04 19:21 53.65833 10.04492 783 ft 141 kts 233°
2026-05-04 19:21 53.65201 10.03209 592 ft 141 kts 234°
2026-05-04 19:21 53.64582 10.01939 399 ft 140 kts 233°
2026-05-04 19:21 53.63957 10.00689 204 ft 139 kts 233°
2026-05-04 19:22 53.63348 9.99449 56 ft 129 kts 231°
2026-05-04 19:22 53.62916 9.98574 54 ft 70 kts 230°
2026-05-04 19:22 53.62717 9.98175 56 ft 30 kts 230°
2026-05-04 19:22 53.62585 9.97909 54 ft 26 kts 230°
2026-05-04 19:23 53.62514 9.97791 52 ft 8 kts 197°
2026-05-04 19:23 53.62456 9.97813 53 ft 10 kts 144°
2026-05-04 19:23 53.62431 9.97935 55 ft 13 kts 82°
2026-05-04 19:23 53.62457 9.98072 54 ft 12 kts 57°
2026-05-04 19:24 53.62509 9.98192 56 ft 13 kts 50°
2026-05-04 19:24 53.62573 9.98317 56 ft 15 kts 49°
2026-05-04 19:24 53.62640 9.98452 56 ft 13 kts 50°
2026-05-04 19:24 53.62703 9.98580 56 ft 15 kts 50°
2026-05-04 19:25 53.62773 9.98720 56 ft 16 kts 50°
2026-05-04 19:25 53.62849 9.98874 56 ft 18 kts 50°
2026-05-04 19:25 53.62931 9.99041 56 ft 19 kts 50°
2026-05-04 19:25 53.62994 9.99169 56 ft 14 kts 50°
2026-05-04 19:26 53.63044 9.99270 56 ft 9 kts 52°
2026-05-04 19:26 53.63077 9.99347 56 ft 0 kts 55°
2026-05-04 19:26 53.63077 9.99348 56 ft 1 kts 55°
2026-05-04 19:26 53.63117 9.99445 55 ft 14 kts 55°
2026-05-04 19:27 53.63179 9.99584 55 ft 15 kts 50°
2026-05-04 19:27 53.63208 9.99643 55 ft 7 kts 50°
2026-05-04 19:27 53.63226 9.99730 56 ft 9 kts 105°
2026-05-04 19:27 53.63174 9.99804 56 ft 11 kts 153°
2026-05-04 19:28 53.63100 9.99868 56 ft 12 kts 153°
2026-05-04 19:28 53.63023 9.99936 56 ft 13 kts 153°
2026-05-04 19:28 53.62974 9.99984 56 ft 9 kts 132°
2026-05-04 19:28 53.62941 10.00081 56 ft 7 kts 122°
2026-05-04 19:29 53.62911 10.00162 55 ft 6 kts 122°
2026-05-04 19:29 53.62902 10.00188 55 ft 0 kts 122°
2026-05-04 19:29 53.62900 10.00194 56 ft 2 kts 123°
2026-05-04 19:29 53.62894 10.00207 56 ft 0 kts 123°